Dewpoint
19 20 19 18 20 22 21 21 21 20 20 21 22 22 23 24 24 24 24 24 25 25 26 27 28 29 29 30 31 31 31 31 31 31 30 29 29 28 28 28 27 26
18 20 21 19 20 20 20 22 21 22 21 21 22 23 23 24 23 23 23 23 23 23 24 25 26 27 28 28 29 30 30 31 30 31 30 30 30 29 28 28 27 27
19 19 19 18 18 18 19 20 21 21 22 21 21 22 24 24 23 22 23 23 23 23 23 23 23 24 26 27 28 28 29 29 29 30 30 30 30 30 30 29 28 27
20 20 20 19 20 18 20 19 19 20 20 20 19 21 22 23 22 21 22 23 22 22 23 22 23 23 24 25 26 26 27 28 28 29 29 29 30 30 30 29 29 28
21 21 21 21 21 21 19 20 20 21 20 22 20 21 21 21 21 21 21 21 21 22 22 22 22 21 23 23 24 24 24 25 26 27 28 28 28 29 29 29 29 29
19 21 20 20 19 20 18 18 20 21 20 21 21 20 21 21 21 21 21 21 21 21 21 21 21 20 21 21 22 22 23 23 24 26 26 26 27 28 28 29 28 28
17 18 16 19 15 18 18 18 20 22 20 21 21 19 21 19 19 20 21 21 21 21 21 21 21 21 20 21 21 20 20 21 23 24 24 24 25 25 26 27 27 27
15 16 16 16 13 15 17 17 19 20 20 20 19 20 20 19 19 20 20 20 20 20 20 20 21 20 20 20 20 20 19 21 22 22 22 22 23 23 24 26 26 27
14 15 14 13 14 14 17 16 18 20 20 19 19 19 19 18 18 19 19 19 19 19 19 19 20 19 20 20 19 19 19 19 20 20 20 20 20 21 21 23 24 24
13 14 13 13 13 14 16 16 19 20 20 19 19 19 18 17 18 18 17 17 17 17 17 18 18 18 18 19 19 19 19 19 18 18 19 19 20 20 20 21 22 22
13 13 13 13 13 13 14 15 18 18 19 19 19 18 17 17 17 17 16 16 16 16 16 15 16 16 17 17 18 18 18 18 18 18 18 19 19 19 22 20 21 21
14 13 14 14 14 14 14 14 15 15 16 16 17 17 16 16 16 15 16 15 15 15 15 14 14 15 15 15 15 15 15 16 16 17 17 18 18 18 18 19 20 20
14 14 14 14 15 15 15 14 14 14 14 14 15 15 15 14 14 14 14 14 14 14 13 13 13 13 13 12 12 12 13 13 14 15 15 16 17 17 17 17 18 19
15 15 15 16 16 15 15 15 14 14 14 15 15 15 14 14 14 14 14 14 14 13 13 13 11 10 10 10 10 11 12 12 13 15 15 16 17 17 17 17 17 18
16 16 17 16 15 15 15 15 15 15 16 16 16 15 15 14 14 14 14 14 14 13 12 11 10 9 9 9 11 13 14 15 16 17 17 17 18 18 18 18 18 18
15 15 14 14 14 15 15 15 16 16 16 16 15 14 14 14 14 15 15 14 13 12 11 10 9 8 13 18 20 18 18 18 18 18 18 17 17 17 17 17 17 18
14 14 14 14 15 15 15 16 16 15 15 14 14 13 13 13 14 13 12 11 11 10 9 9 9 9 17 20 22 23 20 18 18 19 18 18 18 17 17 17 17 17
14 14 14 14 15 15 14 13 13 12 11 11 11 11 11 12 11 10 9 9 9 9 8 8 8 15 19 20 22 23 23 19 19 19 19 18 18 18 18 18 18 18
13 13 13 13 13 12 11 10 9 9 9 9 9 10 10 9 8 8 8 8 8 7 7 7 7 14 18 20 21 22 23 21 18 18 18 18 17 17 17 17 17 17
12 11 10 9 9 8 7 7 7 7 7 8 8 8 8 7 7 7 7 6 6 6 6 6 6 12 18 19 20 20 21 20 16 17 17 17 17 16 16 16 15 15
9 7 6 5 5 5 5 5 5 6 6 6 6 6 6 5 5 4 5 5 5 5 5 5 4 14 17 18 18 19 20 19 14 13 12 11 10 11 11 12 12 12
4 3 3 4 4 4 3 4 4 4 4 4 4 4 4 4 3 4 3 3 4 4 3 3 2 13 15 16 17 19 19 12 10 9 9 8 8 7 7 8 9 11
2 2 2 2 2 2 2 1 2 2 2 2 2 2 2 1 1 2 2 2 2 2 2 1 1 7 13 15 16 18 16 9 9 8 8 8 6 7 6 6 7 8
1 0 1 1 0 -1 -0 1 0 1 0 1 0 -0 -0 -0 0 1 1 1 1 0 0 0 1 6 13 14 15 16 15 9 8 6 6 6 6 6 6 6 7 14
-0 -1 -1 -1 -2 -1 -2 -2 -1 -1 -0 -0 -0 -1 -1 -1 -0 -1 -1 -1 -1 -1 5 2 -0 4 11 13 14 15 11 9 8 8 7 7 6 6 6 6 5 10
-2 -2 -2 -2 -2 -2 -2 -2 -2 -2 -2 -2 -2 -2 -2 -2 -2 -2 -3 -2 -2 -2 -2 -2 -2 -1 1 12 13 15 15 9 8 7 7 6 6 6 6 6 5 4